New York, NY

12:43 PM EDT on September 26, 2016 (GMT -0400)
Central Park

Weather History for KNYC - March, 2014

Change the Weather History Date:

Monday, March 3, 2014

  Actual Average Record
Temperature  
Mean Temperature 25 °F 39 °F  
Max Temperature 32 °F 45 °F 65 °F (1991)
Min Temperature 17 °F 32 °F 11 °F (2003)
Degree Days  
Heating Degree Days 40 26  
Month to date heating degree days 105 80  
Since 1 July heating degree days 3775 3602  
Cooling Degree Days 0 0  
Month to date cooling degree days 0 0  
Year to date cooling degree days 0 0  
Moisture  
Dew Point 5 °F    
Average Humidity 57    
Maximum Humidity 74    
Minimum Humidity 39    
Precipitation  
Precipitation 0.04 in 0.12 in 2.25 in (1906)
Month to date precipitation 0.04 0.37  
Year to date precipitation 8.31 7.11  
Snow  
Snow 0.10 in 0.20 in 12.50 in (1960)
Month to date snowfall 0.1 0.6  
Since 1 July snowfall 57.4 21.9  
Snow Depth 5.00 in    
Sea Level Pressure  
Sea Level Pressure 30.16 in    
Wind  
Wind Speed 7 mph (North)    
Max Wind Speed 16 mph    
Max Gust Speed 24 mph    
Visibility 8 miles    
Events Snow    
T = Trace of Precipitation, MM = Missing Value Source: NWS Daily Summary

Daily Weather History Graph

Daily Weather History Graph

Search for Another Location

Airport or City:

Trip Planner

Search our weather history database for the weather conditions in past years. The results will help you decide how hot, cold, wet, or windy it might be!

Date:

Astronomy

Mar. 03, 2014 Rise Set
Actual Time 6:26 AM EST 5:49 PM EST
Civil Twilight 5:59 AM EST 6:16 PM EST
Nautical Twilight 5:27 AM EST 6:48 PM EST
Astronomical Twilight 4:55 AM EST 7:20 PM EST
Moon 7:32 AM EST (3/3) 8:50 PM EST (3/3)
Length of Visible Light 12h 17m
Length of Day
11h 22m
Waxing Crescent, 8% of the Moon is Illuminated
Mar 3
Waxing Crescent
Mar 8
First Quarter
Mar 16
Full
Mar 23
Last Quarter
Mar 30
New

Hourly Weather History & Observations

Time (EST) Temp. Windchill Dew Point Humidity Pressure Visibility Wind Dir Wind Speed Gust Speed Precip Events Conditions
12:51 AM 32.0 °F 24.8 °F 15.1 °F 50% 30.01 in 10.0 mi NNE 8.1 mph 17.3 mph N/A   Overcast
1:51 AM 30.0 °F 23.2 °F 12.9 °F 49% 30.02 in 10.0 mi NNW 6.9 mph - N/A   Overcast
2:46 AM 26.6 °F 15.2 °F 15.8 °F 64% 30.05 in 2.5 mi North 13.8 mph 19.6 mph 0.00 in Snow Light Snow
2:51 AM 26.1 °F 15.0 °F 16.0 °F 66% 30.03 in 2.0 mi North 12.7 mph 18.4 mph 0.00 in Snow Light Snow
3:27 AM 25.0 °F 15.5 °F 17.1 °F 72% 30.05 in 1.2 mi NNE 9.2 mph - 0.00 in Snow Light Snow
3:51 AM 24.1 °F 16.0 °F 18.0 °F 77% 30.04 in 1.2 mi NNE 6.9 mph - 0.01 in Snow Light Snow
4:51 AM 23.0 °F 12.4 °F 16.0 °F 74% 30.07 in 1.8 mi NNE 10.4 mph 17.3 mph 0.02 in Snow Light Snow
5:32 AM 21.9 °F 13.4 °F 14.0 °F 72% 30.10 in 2.0 mi NNE 6.9 mph - 0.01 in Snow Light Snow
5:40 AM 21.9 °F 13.4 °F 14.0 °F 72% 30.10 in 4.0 mi Variable 6.9 mph - 0.01 in Snow Light Snow
5:51 AM 21.9 °F - 9.0 °F 58% 30.09 in 8.0 mi North - - 0.01 in   Overcast
6:51 AM 21.9 °F 9.2 °F 3.0 °F 44% 30.12 in 10.0 mi North 13.8 mph 18.4 mph N/A   Overcast
7:51 AM 21.0 °F 11.4 °F 1.9 °F 44% 30.14 in 10.0 mi NNE 8.1 mph 23.0 mph N/A   Overcast
8:51 AM 19.9 °F - 1.9 °F 46% 30.16 in 10.0 mi North - - N/A   Overcast
9:51 AM 21.0 °F 12.4 °F 1.9 °F 44% 30.17 in 10.0 mi Variable 6.9 mph - N/A   Overcast
10:51 AM 21.0 °F 12.4 °F 1.9 °F 44% 30.18 in 10.0 mi Variable 6.9 mph - N/A   Partly Cloudy
11:51 AM 19.9 °F 10.1 °F -0.9 °F 40% 30.18 in 10.0 mi WNW 8.1 mph - N/A   Mostly Cloudy
12:51 PM 19.9 °F 14.9 °F -2.0 °F 38% 30.18 in 10.0 mi Variable 3.5 mph - N/A   Overcast
1:51 PM 21.0 °F - -0.9 °F 38% 30.17 in 10.0 mi North - - N/A   Clear
2:51 PM 21.0 °F 14.6 °F -0.9 °F 38% 30.19 in 10.0 mi Variable 4.6 mph - N/A   Scattered Clouds
3:51 PM 21.9 °F 15.7 °F -0.0 °F 38% 30.20 in 10.0 mi Variable 4.6 mph - N/A   Clear
4:51 PM 21.9 °F 15.7 °F -0.9 °F 37% 30.22 in 10.0 mi Variable 4.6 mph - N/A   Clear
5:51 PM 21.9 °F 13.4 °F -0.0 °F 38% 30.24 in 10.0 mi WNW 6.9 mph - N/A   Clear
6:51 PM 21.9 °F 17.2 °F -0.0 °F 38% 30.26 in 10.0 mi Variable 3.5 mph - N/A   Clear
7:51 PM 21.0 °F 10.6 °F -0.0 °F 40% 30.28 in 10.0 mi NNE 9.2 mph - N/A   Clear
8:51 PM 21.0 °F 11.4 °F 1.0 °F 42% 30.30 in 10.0 mi NNE 8.1 mph - N/A   Clear
9:51 PM 19.9 °F 12.1 °F -2.0 °F 38% 30.31 in 10.0 mi Variable 5.8 mph - N/A   Clear
10:51 PM 19.0 °F - -0.9 °F 42% 30.33 in 10.0 mi Calm Calm - N/A   Clear
11:51 PM 18.0 °F 11.1 °F -2.9 °F 40% 30.33 in 10.0 mi Variable 4.6 mph - N/A   Clear